Track COSMOS 982 now! 10-day predictions COSMOS 982 is classified as:
1 10589U 78005G 21110.95605510 -.00000022 00000-0 -44017-4 0 9995 2 10589 74.0312 182.0476 0033030 183.7640 287.3975 12.44102706965376